Location: Spruce Knob
(38.6995°N, 79.5330°W)
Time: 18:51:50
(UTC-04:00)

A-11 Canister half - Pass Details

Date: 04 February 2022
Orbit: 1513 x 1686 km, 47.2° (Epoch: 26 May)

Event Time Altitude Azimuth Distance (km) Brightness Sun altitude
Rises 16:23:23 0° 271° (W) 4,808 12.6 13.1°
Reaches altitude 10° 16:26:40 10° 276° (W) 3,799 12.0 12.6°
Maximum altitude 16:36:00 53° 352° (N) 1,857 9.5 11.0°
Drops below altitude 10° 16:45:04 10° 68° (ENE) 3,689 10.4 9.5°
Sets 16:48:12 0° 73° (ENE) 4,661 10.9 9.0°
